Find Starlink 31931

NORAD ID: 59864 Int'l Des: 2024-098 Owner: SPXS Country: US Constellation: starlink operational
LEOCIRCULAR

Live Position

Loading 3D Globe...

About Starlink 31931

Description loading...

Upcoming Passes

Passes for default location (London). Set your location on the main map for personalized predictions.

Altitude History

Loading altitude history...

Two-Line Element Set

1 59864U 24098G 26125.58427340 .00001424 00000-0 61246-4 0 9998
2 59864 43.0037 317.0119 0001348 257.6646 102.4055 15.27586993110548
Epoch: May 5, 2026 • Age: 16 hours

Current Status

Altitude 485.7 km
Velocity 7.63 km/s
Sub-Earth Point 37.39°N, 121.09°E
Launch Date May 24, 2024
Age 1.9 years
Type internet

Technical Details

Classification Payload
Mass 730.00 kg
Dry Mass 700.00 kg
Total Mass 730.00 kg
Length 0.30 m
Diameter 4.10 m
Span 29.00 m
Shape Box + pan
Manufacturer SPXS
Bus Type Starlink V2M
Phase Status In Orbit
Owner/State SPXS/US

Most Searched